Weather History for Grand Canyon, AZ

Change the Weather History Date:

Friday, November 2, 2012

  Actual Average Record
Temperature  
Mean Temperature 44 °F -  
Max Temperature 63 °F 53 °F 70 °F (1999)
Min Temperature 26 °F 23 °F 10 °F (2011)
Degree Days  
Heating Degree Days 20    
Moisture  
Dew Point 9 °F    
Average Humidity 30    
Maximum Humidity 51    
Minimum Humidity 12    
Precipitation  
Precipitation 0.00 in - - ()
Sea Level Pressure  
Sea Level Pressure 30.06 in    
Wind  
Wind Speed 1 mph (SW)    
Max Wind Speed 9 mph    
Max Gust Speed 17 mph    
Visibility 10 miles    
Events      
Averages and records for this station are not official NWS values.
T = Trace of Precipitation, MM = Missing Value Source: NWS Daily Summary

Daily Weather History Graph

Daily Weather History Graph

Search for Another Location

Airport:

Trip Planner

Search our weather history database for the weather conditions in past years. The results will help you decide how hot, cold, wet, or windy it might be!

Date:

Astronomy

Nov. 02, 2012 Rise Set
Actual Time 6:52 AM MST 5:31 PM MST
Civil Twilight 6:25 AM MST 5:57 PM MST
Nautical Twilight 5:55 AM MST 6:28 PM MST
Astronomical Twilight 5:25 AM MST 6:58 PM MST
Moon 8:25 PM MST (11/2) 10:11 AM MST (11/2)
Length of Visible Light 11h 31m
Length of Day
10h 38m
Waning Gibbous, 86% of the Moon is Illuminated
Nov 2
Waning Gibbous
Nov 6
Last Quarter
Nov 13
New
Nov 20
First Quarter
Nov 28
Full

Hourly Weather History & Observations

Time (MST) Temp. Dew Point Humidity Pressure Visibility Wind Dir Wind Speed Gust Speed Precip Events Conditions
12:54 AM 30.9 °F 6.1 °F 35% 30.01 in 10.0 mi Calm Calm - N/A   Clear
1:54 AM 30.0 °F 7.0 °F 38% 30.01 in 10.0 mi Calm Calm - N/A   Clear
2:54 AM 30.9 °F 8.1 °F 38% 30.01 in 10.0 mi Calm Calm - N/A   Clear
3:54 AM 30.9 °F 9.0 °F 40% 30.01 in 10.0 mi Calm Calm - N/A   Clear
4:54 AM 28.0 °F 8.1 °F 43% 30.04 in 10.0 mi Calm Calm - N/A   Clear
5:54 AM 28.0 °F 9.0 °F 45% 30.06 in 10.0 mi Calm Calm - N/A   Clear
6:54 AM 26.1 °F 9.0 °F 49% 30.13 in 10.0 mi Calm Calm - N/A   Clear
7:54 AM 34.0 °F 10.9 °F 38% 30.14 in 10.0 mi Calm Calm - N/A   Clear
8:54 AM 53.1 °F 14.0 °F 21% 30.07 in 10.0 mi Calm Calm - N/A   Clear
9:54 AM 57.0 °F 15.1 °F 19% 30.07 in 10.0 mi SSW 4.6 mph - N/A   Clear
10:54 AM 59.0 °F 12.9 °F 16% 30.07 in 10.0 mi South 6.9 mph - N/A   Clear
11:54 AM 61.0 °F 12.9 °F 15% 30.05 in 10.0 mi WSW 8.1 mph 17.3 mph N/A   Clear
12:54 PM 61.0 °F 15.1 °F 17% 30.02 in 10.0 mi SW 3.5 mph - N/A   Clear
1:54 PM 63.0 °F 10.0 °F 13% 30.00 in 10.0 mi West 9.2 mph - N/A   Clear
2:54 PM 62.1 °F 8.1 °F 12% 29.99 in 10.0 mi WSW 6.9 mph - N/A   Clear
3:54 PM 61.0 °F 9.0 °F 13% 30.00 in 10.0 mi SSW 6.9 mph - N/A   Clear
4:54 PM 60.1 °F 9.0 °F 13% 30.02 in 10.0 mi West 3.5 mph - N/A   Clear
5:54 PM 42.1 °F 6.1 °F 23% 30.10 in 10.0 mi Calm Calm - N/A   Clear
6:54 PM 34.0 °F 5.0 °F 30% 30.17 in 10.0 mi Calm Calm - N/A   Clear
7:54 PM 32.0 °F 7.0 °F 35% 30.15 in 10.0 mi Calm Calm - N/A   Clear
8:54 PM 28.9 °F 5.0 °F 36% 30.09 in 10.0 mi Calm Calm - N/A   Clear
9:54 PM 28.9 °F 8.1 °F 41% 30.09 in 10.0 mi Calm Calm - N/A   Clear
10:54 PM 28.0 °F 9.0 °F 45% 30.09 in 10.0 mi Calm Calm - N/A   Clear
11:54 PM 26.1 °F 10.0 °F 51% 30.09 in 10.0 mi Calm Calm - N/A   Clear